Location: Kawakawa
(35.3830°S, 174.0670°E)
Time: 03:16:14
(UTC+13:00)

Altair - Pass Details

Date: 08 December 2019
Orbit: 1502 x 1682 km, 47.2° (Epoch: 19 January)

Event Time Altitude Azimuth Distance (km) Brightness Sun altitude
Rises 16:16:12 0° 238° (WSW) 4,929 10.6 48.9°
Reaches altitude 10° 16:19:26 10° 235° (SW) 3,952 10.3 48.2°
Maximum altitude 16:29:35 64° 153° (SSE) 1,839 8.5 46.2°
Drops below altitude 10° 16:39:38 10° 72° (ENE) 3,921 9.3 44.1°
Sets 16:42:49 0° 69° (ENE) 4,889 9.7 43.5°
